STARLINK-31025 (58634 NORAD) Tracking and Keplerian Element Data

This shows tracking and keplerian element data for the satellite.

Feedback or suggestion? Click here.




ElementValue
Catalog58634
NameSTARLINK-31025
Epoch Orbit458
Epoch Day13.25002315
Epoch Year2024
RAAN182.5589
Inclination43.0011
Eccentricity0.0001708
Argument of Perigee271.2141
Mean Anonmoly108.073
Mean Motion15.6340802
Decay Rate-0.01652814
L11 58634U 23203S 24013.25002315 -.01652814 00000+0 -19748-1 0 9992
L22 58634 43.0011 182.5589 0001708 271.2141 108.0730 15.63408020 4584



Live tracking and technical data element details for STARLINK-31025 (NORAD 58634). STARLINK-31025 can be tracked NOW for your location showing map with azimuth and elevation plus other details from your city location.







IsCatalogInMostPopularTable: catalog: 58634, numindb: 24
Update: records affected: 1



GetName: 58634 STARLINK-31025

Hit Count: updated at: Wed, 17 Apr 2024 03:04:34 GMT